Namest Nad Oslav, Czech Republic

7:45 PM CEST on September 27, 2016 (GMT +0200)
Namest

Weather History for LKNA - August, 2013

Change the Weather History Date:

Saturday, August 17, 2013

  Actual Average Record
Temperature  
Mean Temperature 68 °F -  
Max Temperature 80 °F - - ()
Min Temperature 55 °F - - ()
Cooling Degree Days 2    
Growing Degree Days 18 (Base 50)    
Moisture  
Dew Point 45 °F    
Average Humidity 44    
Maximum Humidity 63    
Minimum Humidity 26    
Precipitation  
Precipitation 0.00 in - - ()
Sea Level Pressure  
Sea Level Pressure 30.08 in    
Wind  
Wind Speed 4 mph ()    
Max Wind Speed 8 mph    
Max Gust Speed -    
T = Trace of Precipitation, MM = Missing Value Source: Averaged Metar Reports

Daily Weather History Graph

Daily Weather History Graph

Search for Another Location

Airport or City:

Trip Planner

Search our weather history database for the weather conditions in past years. The results will help you decide how hot, cold, wet, or windy it might be!

Date:

Astronomy

Aug. 17, 2013 Rise Set
Actual Time 5:50 AM CEST 8:07 PM CEST
Civil Twilight 5:15 AM CEST 8:42 PM CEST
Nautical Twilight 4:31 AM CEST 9:26 PM CEST
Astronomical Twilight 3:41 AM CEST 10:15 PM CEST
Moon 5:16 PM CEST (8/17) 1:24 AM CEST (8/17)
Length of Visible Light 15h 27m
Length of Day
14h 17m
Waxing Gibbous, 82% of the Moon is Illuminated
Aug 17
Waxing Gibbous
Aug 21
Full
Aug 28
Last Quarter
Sep 5
New
Sep 12
First Quarter

Hourly Weather History & Observations

Time (CEST) Temp. Dew Point Humidity Pressure Visibility Wind Dir Wind Speed Gust Speed Precip Events Conditions
12:00 AM 62.6 °F 42.8 °F 48% 30.12 in - ENE 3.5 mph - N/A   Clear
1:00 AM 60.8 °F 42.8 °F 52% 30.12 in - NE 3.5 mph - N/A   Clear
2:00 AM 60.8 °F 42.8 °F 52% 30.12 in - NNE 3.5 mph - N/A   Clear
3:00 AM 57.2 °F 42.8 °F 59% 30.12 in - NNE 5.8 mph - N/A   Clear
4:00 AM 57.2 °F 42.8 °F 59% 30.09 in - NNE 5.8 mph - N/A   Clear
5:00 AM 55.4 °F 42.8 °F 63% 30.09 in - NNE 5.8 mph - N/A   Clear
6:00 AM 55.4 °F 42.8 °F 63% 30.09 in - NNE 4.6 mph - N/A   Clear
7:00 AM 59.0 °F 44.6 °F 59% 30.09 in - North 3.5 mph - N/A   Clear
8:00 AM 60.8 °F 44.6 °F 55% 30.09 in - NNE 3.5 mph - N/A   Clear
9:00 AM 64.4 °F 44.6 °F 49% 30.09 in - ESE 5.8 mph - N/A   Clear
10:00 AM 68.0 °F 46.4 °F 46% 30.09 in - SE 5.8 mph - N/A   Clear
11:00 AM 71.6 °F 48.2 °F 43% 30.09 in - ESE 5.8 mph - N/A   Clear
12:00 PM 73.4 °F 48.2 °F 41% 30.09 in - SE 5.8 mph - N/A   Clear
1:00 PM 75.2 °F 46.4 °F 36% 30.06 in - ESE 5.8 mph - N/A   Clear
2:00 PM 77.0 °F 48.2 °F 36% 30.06 in - West 3.5 mph - N/A   Clear
3:00 PM 78.8 °F 42.8 °F 28% 30.04 in - South 5.8 mph - N/A   Clear
4:00 PM 80.6 °F 42.8 °F 26% 30.04 in - WNW 6.9 mph - N/A   Clear
5:00 PM 78.8 °F 42.8 °F 28% 30.04 in - WNW 6.9 mph - N/A   Clear
6:00 PM 80.6 °F 42.8 °F 26% 30.04 in - NW 8.1 mph - N/A   Clear
7:00 PM 80.6 °F 46.4 °F 30% 30.04 in - NW 5.8 mph - N/A   Clear
8:00 PM 77.0 °F 44.6 °F 32% 30.04 in - NW 5.8 mph - N/A   Clear
9:00 PM 73.4 °F 48.2 °F 41% 30.06 in - East 3.5 mph - N/A   Clear
10:00 PM 73.4 °F 48.2 °F 41% 30.06 in - East 4.6 mph - N/A   Clear
11:00 PM 71.6 °F 48.2 °F 43% 30.06 in - ESE 4.6 mph - N/A   Clear